081  
ASUS43 KGLD 260008  
RWRGLD  
 
GOODLAND FORECAST AREA HOURLY WEATHER ROUNDUP  
NATIONAL WEATHER SERVICE GOODLAND KS  
600 PM MDT MON SEP 25 2023  
   
..OFFICIAL OBSERVATIONS
 
 
 
CITY SKY/WX TMP DP RH WIND PRES REMARKS
 
GOODLAND KS CLEAR 83 32 16 CALM 30.13S  
HILL CITY KS CLEAR 89 38 16 CALM 30.09S  
IMPERIAL NEB CLEAR 82 38 20 SE5 30.12R  
MCCOOK NEB CLEAR 81 54 39 NE6 30.10S  
AKRON CO N/A N/A N/A N/A MISG 30.17S  
BURLINGTON CO CLEAR 82 32 16 SW8 30.17S  
LIMON CO CLEAR 79 36 21 S8 30.22S  

 
   
..UNOFFICIAL OBSERVATIONS
 
 
 
CITY SKY/WX TMP DP RH WIND PRES REMARKS
 
COLBY KS CLEAR 85 29 13 SE6 30.13S  
OAKLEY KS CLEAR 87 12 6 CALM 30.12R  
NORTON KS HAZE 79 48 34 E7 30.13R VSB 1/4  
OBERLIN KS CLEAR 84 44 24 E3 30.14S  
SHARON SPRINGS N/A 84 26 12 CALM N/A  
ST FRANCIS KS CLEAR 83 26 12 SE3 30.12S  
WRAY CO CLEAR 82 30 15 E3 30.14S  
YUMA CO CLEAR 77 -15 2 E7 30.15S  

 
 
 
CLICK HERE TO GO TO PREVIOUS BULLETINS.

The Nexlab KS Page
The Nexlab CO Page
The Nexlab NE Page Main Text Page